Home   Weather   Orléans   Past weeks
Flag for France

Past Weather in Orléans, Centre-Val de Loire, France — Yesterday and Last 2 Weeks

Now
54 °F

Passing clouds.


Feels Like: 50 °F
Forecast: 58 / 35 °F
Wind: 13 mph from North

Location: Orleans Airport

Current Time: Mar 26, 2019 at 3:32:38 pm

Latest Report: Mar 26, 2019 at 3:00 pm


Visibility: N/A

Pressure: 30.45 "Hg

Humidity: 47%

Dew Point: 34 °F

Location of OrléansLocation

Past Weather in Orléans — Graph

°F

Orléans Temperature Yesterday

Maximum temperature yesterday: 55 °F (at 3:00 pm)
Minimum temperature yesterday: 32 °F (at 4:30 am)
Average temperature yesterday: 44 °F

High & Low Weather Summary for the Past Weeks

 TemperatureHumidityPressure
High64 °F (Mar 22, 4:30 pm)100% (Mar 14, 8:30 pm)30.54 "Hg (Mar 14, 8:30 pm)
Low32 °F (Mar 19, 5:00 am)37% (Mar 22, 4:30 pm)29.68 "Hg (Mar 17, 3:30 am)
Average46 °F78%30.23 "Hg
* Reported Mar 11 2:00 pm — Mar 26 2:00 pm, Orléans. Weather by CustomWeather, © 2019

Note: Actual official high and low records may vary slightly from our data, if they occured in-between our weather recording intervals... More about our weather records

Advertising

Orléans Weather History for the Previous 24 Hours

Scroll right to see more
 ConditionsComfort  
Time TempWeatherWind HumidityBarometerVisibility
2:00 pm
Tue, Mar 26
54 °FSunny.15 mph44%30.48 "Hg10 mi
1:30 pm52 °FPassing clouds.13 mph50%30.48 "HgN/A
1:00 pm50 °FPassing clouds.13 mph54%30.48 "HgN/A
12:30 pm50 °FPassing clouds.12 mph54%30.48 "HgN/A
12:00 pm48 °FPassing clouds.10 mph54%30.51 "HgN/A
11:30 am48 °FPassing clouds.12 mph54%30.51 "HgN/A
11:00 am48 °FPassing clouds.13 mph58%30.51 "HgN/A
10:30 am46 °FScattered clouds.14 mph62%30.51 "HgN/A
10:00 am46 °FSunny.14 mph62%30.51 "Hg10 mi
9:30 am45 °FSunny.15 mph71%30.51 "Hg10 mi
9:00 am43 °FSunny.10 mph76%30.51 "Hg10 mi
8:30 am41 °FSunny.8 mph76%30.51 "Hg10 mi
8:00 am37 °FSunny.8 mph81%30.51 "Hg10 mi
7:30 am36 °FSunny.3 mph87%30.51 "Hg10 mi
7:00 am34 °FSunny.7 mph87%30.48 "Hg10 mi
6:30 am34 °FPassing clouds.9 mph93%30.48 "HgN/A
6:00 am34 °FPassing clouds.9 mph87%30.48 "HgN/A
5:30 am34 °FClear.10 mph87%30.48 "Hg10 mi
5:00 am34 °FClear.8 mph87%30.48 "Hg10 mi
4:30 am36 °FClear.9 mph87%30.45 "Hg10 mi
4:00 am37 °FClear.8 mph75%30.48 "Hg10 mi
3:30 am36 °FClear.10 mph81%30.48 "Hg10 mi
3:00 am37 °FClear.6 mph81%30.48 "Hg10 mi
2:30 am39 °FPassing clouds.9 mph75%30.48 "HgN/A
2:00 am37 °FPassing clouds.7 mph81%30.48 "HgN/A
1:30 am37 °FPassing clouds.7 mph81%30.48 "HgN/A
1:00 am39 °FPassing clouds.10 mph75%30.48 "HgN/A
12:30 am37 °FClear.8 mph81%30.48 "Hg10 mi
12:00 am37 °FClear.7 mph75%30.48 "Hg10 mi
11:30 pm
Mon, Mar 25
39 °FPassing clouds.9 mph75%30.48 "HgN/A
11:00 pm41 °FClear.9 mph70%30.45 "Hg10 mi
10:30 pm39 °FClear.8 mph70%30.45 "Hg10 mi
10:00 pm41 °FClear.7 mph66%30.45 "Hg10 mi
9:30 pm43 °FClear.10 mph61%30.45 "Hg10 mi
9:00 pm43 °FClear.8 mph61%30.42 "Hg10 mi
8:30 pm45 °FClear.8 mph57%30.42 "Hg10 mi
8:00 pm45 °FClear.9 mph57%30.42 "Hg10 mi
7:30 pm46 °FClear.13 mph53%30.39 "Hg10 mi
7:00 pm48 °FSunny.16 mph46%30.39 "Hg10 mi
6:30 pm50 °FSunny.16 mph43%30.39 "Hg10 mi
6:00 pm52 °FSunny.16 mph44%30.39 "Hg10 mi
5:30 pm52 °FSunny.20 mph44%30.36 "Hg10 mi
5:00 pm54 °FSunny.18 mph38%30.36 "Hg10 mi
4:30 pm54 °FSunny.18 mph41%30.36 "Hg10 mi
4:00 pm54 °FPassing clouds.18 mph41%30.36 "HgN/A
3:30 pm54 °FPassing clouds.18 mph41%30.36 "HgN/A
3:00 pm55 °FSunny.17 mph38%30.36 "Hg10 mi
Weather by CustomWeather, © 2019

See weather overview